Time,TemperatureF,DewpointF,PressureIn,WindDirection,WindDirectionDegrees,WindSpeedMPH,WindSpeedGustMPH,Humidity,HourlyPrecipIn,Conditions,Clouds,dailyrainin,SoftwareType,DateUTC
2013-09-12 00:03:00,67.1,54.9,30.03,SW,225,1.0,1.0,65,0.00,CLR,CLR,0.00,WeatherDisplay:10.37,2013-09-12 04:03:00,
2013-09-12 00:18:00,66.9,54.8,30.03,SW,225,1.0,2.0,65,0.00,CLR,CLR,0.00,WeatherDisplay:10.37,2013-09-12 04:18:00,
2013-09-12 00:33:00,66.7,54.2,30.03,SW,225,0.0,0.0,64,0.00,CLR,CLR,0.00,WeatherDisplay:10.37,2013-09-12 04:33:00,
2013-09-12 00:48:00,66.4,53.4,30.03,SW,225,0.0,0.0,63,0.00,CLR,CLR,0.00,WeatherDisplay:10.37,2013-09-12 04:48:00,
2013-09-12 01:03:00,66.2,53.2,30.03,SW,225,0.0,0.0,63,0.00,CLR,CLR,0.00,WeatherDisplay:10.37,2013-09-12 05:03:00,
2013-09-12 01:18:00,66.0,56.0,30.03,SW,225,0.0,0.0,70,0.00,CLR,CLR,0.00,WeatherDisplay:10.37,2013-09-12 05:18:00,
2013-09-12 01:33:00,66.2,56.5,30.03,SW,225,0.0,0.0,71,0.00,CLR,CLR,0.00,WeatherDisplay:10.37,2013-09-12 05:33:00,
2013-09-12 01:48:00,65.8,56.2,30.03,SW,225,0.0,0.0,71,0.00,CLR,CLR,0.00,WeatherDisplay:10.37,2013-09-12 05:48:00,
2013-09-12 02:03:00,65.7,55.2,30.03,SW,225,0.0,0.0,69,0.00,CLR,CLR,0.00,WeatherDisplay:10.37,2013-09-12 06:03:00,
2013-09-12 02:18:00,65.7,56.4,30.03,SW,225,0.0,1.0,72,0.00,CLR,CLR,0.00,WeatherDisplay:10.37,2013-09-12 06:18:00,
2013-09-12 02:33:00,65.7,56.4,30.03,SW,225,0.0,0.0,72,0.00,CLR,CLR,0.00,WeatherDisplay:10.37,2013-09-12 06:33:00,
2013-09-12 02:48:00,65.7,56.8,30.03,SW,225,1.0,1.0,73,0.00,CLR,CLR,0.00,WeatherDisplay:10.37,2013-09-12 06:48:00,
2013-09-12 03:04:00,66.6,57.6,30.05,South,181,1.0,2.0,73,0.00,CLR,CLR,0.00,WeatherDisplay:10.37,2013-09-12 07:04:00,
2013-09-12 03:05:00,66.6,57.6,30.05,South,181,1.0,0.0,73,0.00,CLR,CLR,0.00,WeatherDisplay:10.37,2013-09-12 07:05:00,
2013-09-12 03:06:00,66.6,57.6,30.05,South,181,1.0,0.0,73,0.00,CLR,CLR,0.00,WeatherDisplay:10.37,2013-09-12 07:06:00,
2013-09-12 03:07:00,66.6,57.6,30.05,South,181,1.0,0.0,73,0.00,CLR,CLR,0.00,WeatherDisplay:10.37,2013-09-12 07:07:00,
2013-09-12 03:08:00,66.6,57.6,30.05,South,181,1.0,0.0,73,0.00,CLR,CLR,0.00,WeatherDisplay:10.37,2013-09-12 07:08:00,
2013-09-12 03:09:00,66.6,57.6,30.05,South,181,1.0,0.0,73,0.00,CLR,CLR,0.00,WeatherDisplay:10.37,2013-09-12 07:09:00,
2013-09-12 03:10:00,66.6,57.6,30.05,South,181,1.0,0.0,73,0.00,CLR,CLR,0.00,WeatherDisplay:10.37,2013-09-12 07:10:00,
2013-09-12 03:11:00,66.6,57.6,30.05,South,181,1.0,0.0,73,0.00,CLR,CLR,0.00,WeatherDisplay:10.37,2013-09-12 07:11:00,
2013-09-12 03:12:00,66.6,57.6,30.05,South,181,1.0,0.0,73,0.00,CLR,CLR,0.00,WeatherDisplay:10.37,2013-09-12 07:12:00,
2013-09-12 03:13:00,66.6,57.6,30.05,South,181,1.0,0.0,73,0.00,CLR,CLR,0.00,WeatherDisplay:10.37,2013-09-12 07:13:00,
2013-09-12 03:14:00,66.6,57.6,30.05,South,181,1.0,0.0,73,0.00,CLR,CLR,0.00,WeatherDisplay:10.37,2013-09-12 07:14:00,
2013-09-12 03:15:00,66.6,57.6,30.05,South,181,1.0,0.0,73,0.00,CLR,CLR,0.00,WeatherDisplay:10.37,2013-09-12 07:15:00,
2013-09-12 03:16:00,66.6,57.6,30.05,South,181,1.0,0.0,73,0.00,CLR,CLR,0.00,WeatherDisplay:10.37,2013-09-12 07:16:00,
2013-09-12 03:17:00,66.6,57.6,30.05,South,181,1.0,0.0,73,0.00,CLR,CLR,0.00,WeatherDisplay:10.37,2013-09-12 07:17:00,
2013-09-12 03:18:00,66.6,57.6,30.05,South,181,1.0,0.0,73,0.00,CLR,CLR,0.00,WeatherDisplay:10.37,2013-09-12 07:18:00,
2013-09-12 07:55:00,65.8,56.9,30.03,South,180,2.7,2.7,73,0.00,CLR,,0.00,WeatherDisplay:10.37,2013-09-12 11:55:00,
2013-09-12 07:56:00,65.8,56.9,30.03,SW,225,1.2,0.0,73,0.00,CLR,,0.00,WeatherDisplay:10.37,2013-09-12 11:56:00,
2013-09-12 07:57:00,65.8,56.9,30.03,SW,225,1.2,1.2,73,0.00,CLR,,0.00,WeatherDisplay:10.37,2013-09-12 11:57:00,
2013-09-12 07:58:00,65.8,56.9,30.03,South,180,2.0,2.0,73,0.00,CLR,,0.00,WeatherDisplay:10.37,2013-09-12 11:58:00,
2013-09-12 08:01:00,65.8,56.9,30.03,South,180,2.3,2.3,73,0.00,CLR,,0.00,WeatherDisplay:10.37,2013-09-12 12:01:00,
2013-09-12 08:06:00,66.0,57.1,30.03,South,180,1.2,1.2,73,0.00,CLR,,0.00,WeatherDisplay:10.37,2013-09-12 12:06:00,
2013-09-12 08:11:00,66.2,57.3,30.03,SSW,202,2.3,2.3,73,0.00,CLR,,0.00,WeatherDisplay:10.37,2013-09-12 12:11:00,
2013-09-12 08:16:00,66.6,57.6,30.03,South,180,1.2,1.2,73,0.00,CLR,,0.00,WeatherDisplay:10.37,2013-09-12 12:16:00,
2013-09-12 08:21:00,66.7,57.8,30.06,SW,225,2.0,2.0,73,0.00,CLR,,0.00,WeatherDisplay:10.37,2013-09-12 12:21:00,
2013-09-12 08:26:00,66.9,58.0,30.06,SW,225,1.4,0.0,73,0.00,CLR,,0.00,WeatherDisplay:10.37,2013-09-12 12:26:00,
2013-09-12 08:31:00,67.3,58.3,30.06,SW,225,2.3,2.3,73,0.00,CLR,,0.00,WeatherDisplay:10.37,2013-09-12 12:31:00,
2013-09-12 08:36:00,67.8,58.8,30.03,SSW,202,1.6,1.6,73,0.00,CLR,,0.00,WeatherDisplay:10.37,2013-09-12 12:36:00,
2013-09-12 08:41:00,67.8,58.8,30.03,SW,225,2.3,2.3,73,0.00,CLR,,0.00,WeatherDisplay:10.37,2013-09-12 12:41:00,
2013-09-12 08:46:00,68.4,59.4,30.03,SW,225,2.3,2.3,73,0.00,CLR,,0.00,WeatherDisplay:10.37,2013-09-12 12:46:00,
2013-09-12 08:51:00,68.5,59.5,30.03,South,180,2.0,2.0,73,0.00,CLR,,0.00,WeatherDisplay:10.37,2013-09-12 12:51:00,
2013-09-12 08:56:00,68.9,59.9,30.03,SSW,202,2.4,2.4,73,0.00,CLR,,0.00,WeatherDisplay:10.37,2013-09-12 12:56:00,
2013-09-12 09:01:00,68.9,59.9,30.03,SW,225,3.5,3.5,73,0.00,CLR,,0.00,WeatherDisplay:10.37,2013-09-12 13:01:00,
2013-09-12 09:06:00,69.4,60.4,30.03,SW,225,3.3,3.3,73,0.00,CLR,,0.00,WeatherDisplay:10.37,2013-09-12 13:06:00,
2013-09-12 09:11:00,69.6,60.6,30.03,WSW,248,2.6,2.6,73,0.00,CLR,,0.00,WeatherDisplay:10.37,2013-09-12 13:11:00,
2013-09-12 09:16:00,70.0,60.9,30.03,South,180,2.3,2.3,73,0.00,CLR,,0.00,WeatherDisplay:10.37,2013-09-12 13:16:00,
2013-09-12 09:21:00,70.3,61.3,30.03,WSW,248,2.6,2.6,73,0.00,CLR,,0.00,WeatherDisplay:10.37,2013-09-12 13:21:00,
2013-09-12 09:26:00,70.7,61.6,30.03,SW,225,3.1,3.1,73,0.00,CLR,,0.00,WeatherDisplay:10.37,2013-09-12 13:26:00,
2013-09-12 09:31:00,71.2,62.1,30.03,South,180,3.5,3.5,73,0.00,CLR,,0.00,WeatherDisplay:10.37,2013-09-12 13:31:00,
2013-09-12 09:36:00,71.6,62.5,30.03,South,180,4.6,4.6,73,0.00,CLR,,0.00,WeatherDisplay:10.37,2013-09-12 13:36:00,
2013-09-12 09:41:00,72.0,62.8,30.03,WSW,248,2.0,2.0,73,0.00,CLR,,0.00,WeatherDisplay:10.37,2013-09-12 13:41:00,
2013-09-12 09:46:00,72.3,63.2,30.03,South,180,3.5,3.5,73,0.00,CLR,,0.00,WeatherDisplay:10.37,2013-09-12 13:46:00,
2013-09-12 09:51:00,72.7,63.5,30.03,WSW,248,4.6,4.6,73,0.00,CLR,,0.00,WeatherDisplay:10.37,2013-09-12 13:51:00,
2013-09-12 09:56:00,73.0,63.9,30.03,SSW,202,3.5,3.5,73,0.00,CLR,,0.00,WeatherDisplay:10.37,2013-09-12 13:56:00,
2013-09-12 10:01:00,73.6,64.4,30.03,SW,225,4.6,4.6,73,0.00,CLR,,0.00,WeatherDisplay:10.37,2013-09-12 14:01:00,
2013-09-12 10:06:00,73.8,72.5,30.03,SW,225,4.6,4.6,96,0.00,CLR,,0.00,WeatherDisplay:10.37,2013-09-12 14:06:00,
2013-09-12 10:11:00,74.3,73.4,30.03,SW,225,3.5,3.5,97,0.00,CLR,,0.00,WeatherDisplay:10.37,2013-09-12 14:11:00,
2013-09-12 10:16:00,75.0,74.1,30.03,West,270,2.6,2.6,97,0.00,CLR,,0.00,WeatherDisplay:10.37,2013-09-12 14:16:00,
2013-09-12 10:21:00,75.4,72.2,30.03,SW,225,2.4,2.4,90,0.00,CLR,,0.00,WeatherDisplay:10.37,2013-09-12 14:21:00,
2013-09-12 10:26:00,76.1,72.3,30.03,WNW,292,2.3,2.3,88,0.00,CLR,,0.00,WeatherDisplay:10.37,2013-09-12 14:26:00,
2013-09-12 10:31:00,76.6,72.1,30.03,WSW,248,3.3,3.3,86,0.00,CLR,,0.00,WeatherDisplay:10.37,2013-09-12 14:31:00,
2013-09-12 10:36:00,77.0,70.7,30.03,West,270,3.5,3.8,81,0.00,CLR,,0.00,WeatherDisplay:10.37,2013-09-12 14:36:00,
2013-09-12 10:41:00,77.5,70.9,30.03,SW,225,4.6,4.6,80,0.00,CLR,,0.00,WeatherDisplay:10.37,2013-09-12 14:41:00,
2013-09-12 10:46:00,78.3,71.2,30.03,North,0,5.6,5.6,79,0.00,CLR,,0.00,WeatherDisplay:10.37,2013-09-12 14:46:00,
2013-09-12 10:51:00,78.3,70.5,30.03,West,270,5.8,5.8,77,0.00,CLR,,0.00,WeatherDisplay:10.37,2013-09-12 14:51:00,
2013-09-12 10:56:00,78.6,70.4,30.03,West,270,4.6,4.6,76,0.00,CLR,,0.00,WeatherDisplay:10.37,2013-09-12 14:56:00,
2013-09-12 11:01:00,79.0,70.8,30.03,North,0,3.5,3.5,76,0.00,CLR,,0.00,WeatherDisplay:10.37,2013-09-12 15:01:00,
2013-09-12 11:06:00,80.6,71.9,30.03,SSW,202,3.5,3.5,75,0.00,CLR,,0.00,WeatherDisplay:10.37,2013-09-12 15:06:00,
2013-09-12 11:11:00,80.6,71.9,30.03,SW,225,5.8,5.8,75,0.00,CLR,,0.00,WeatherDisplay:10.37,2013-09-12 15:11:00,
2013-09-12 11:16:00,81.3,72.6,30.03,WSW,248,2.9,2.9,75,0.00,FEW,,0.00,WeatherDisplay:10.37,2013-09-12 15:16:00,
2013-09-12 11:21:00,81.9,72.8,30.00,SW,225,3.5,3.5,74,0.00,FEW,,0.00,WeatherDisplay:10.37,2013-09-12 15:21:00,
2013-09-12 11:26:00,82.8,72.4,30.00,North,0,3.5,3.5,71,0.00,FEW,,0.00,WeatherDisplay:10.37,2013-09-12 15:26:00,
2013-09-12 11:31:00,83.7,73.3,30.00,NW,315,4.6,4.6,71,0.00,FEW,,0.00,WeatherDisplay:10.37,2013-09-12 15:31:00,
2013-09-12 11:36:00,83.7,73.3,30.03,West,270,3.5,3.5,71,0.00,FEW,,0.00,WeatherDisplay:10.37,2013-09-12 15:36:00,
2013-09-12 11:41:00,85.1,74.6,30.03,North,0,2.3,2.3,71,0.00,FEW,,0.00,WeatherDisplay:10.37,2013-09-12 15:41:00,
2013-09-12 11:46:00,85.3,74.8,30.03,NE,45,3.5,3.5,71,0.00,FEW,,0.00,WeatherDisplay:10.37,2013-09-12 15:46:00,
2013-09-12 11:51:00,84.6,72.8,30.00,NW,315,5.8,5.8,68,0.00,FEW,,0.00,WeatherDisplay:10.37,2013-09-12 15:51:00,
2013-09-12 11:56:00,83.1,71.9,30.00,West,270,3.5,3.6,69,0.00,FEW,,0.00,WeatherDisplay:10.37,2013-09-12 15:56:00,
2013-09-12 12:01:00,84.7,73.0,30.00,NW,315,6.9,6.9,68,0.00,FEW,,0.00,WeatherDisplay:10.37,2013-09-12 16:01:00,
2013-09-12 12:07:00,85.3,73.5,30.03,North,0,3.5,3.5,68,0.00,FEW,,0.00,WeatherDisplay:10.37,2013-09-12 16:07:00,
2013-09-12 12:12:00,85.5,73.7,30.03,North,0,8.1,8.1,68,0.00,FEW,,0.00,WeatherDisplay:10.37,2013-09-12 16:12:00,
2013-09-12 12:17:00,86.4,74.5,30.03,North,0,3.5,3.5,68,0.00,SCT,,0.00,WeatherDisplay:10.37,2013-09-12 16:17:00,
2013-09-12 12:22:00,86.4,74.5,30.03,NE,45,5.8,5.8,68,0.00,SCT,,0.00,WeatherDisplay:10.37,2013-09-12 16:22:00,
2013-09-12 12:27:00,86.5,74.7,30.03,West,270,6.9,6.9,68,0.00,SCT,,0.00,WeatherDisplay:10.37,2013-09-12 16:27:00,
2013-09-12 12:32:00,86.9,75.1,30.00,NW,315,6.9,6.9,68,0.00,SCT,,0.00,WeatherDisplay:10.37,2013-09-12 16:32:00,
2013-09-12 12:37:00,88.5,76.6,30.00,NW,315,5.8,5.8,68,0.00,SCT,,0.00,WeatherDisplay:10.37,2013-09-12 16:37:00,
2013-09-12 12:42:00,87.3,75.4,30.00,NE,45,6.9,6.9,68,0.00,SCT,,0.00,WeatherDisplay:10.37,2013-09-12 16:42:00,
2013-09-12 12:47:00,86.9,75.1,30.00,West,270,4.9,4.9,68,0.00,SCT,,0.00,WeatherDisplay:10.37,2013-09-12 16:47:00,
2013-09-12 12:52:00,85.1,73.3,30.00,NW,315,5.9,5.9,68,0.00,SCT,,0.00,WeatherDisplay:10.37,2013-09-12 16:52:00,
2013-09-12 12:57:00,86.5,74.7,30.00,NW,315,8.1,8.1,68,0.00,SCT,,0.00,WeatherDisplay:10.37,2013-09-12 16:57:00,
2013-09-12 13:02:00,87.3,75.4,30.00,NW,315,3.6,3.6,68,0.00,SCT,,0.00,WeatherDisplay:10.37,2013-09-12 17:02:00,
2013-09-12 13:07:00,87.8,75.9,30.00,WNW,292,4.6,4.6,68,0.00,SCT,,0.00,WeatherDisplay:10.37,2013-09-12 17:07:00,
2013-09-12 13:12:00,88.2,76.3,30.00,North,0,4.6,4.6,68,0.00,SCT,,0.00,WeatherDisplay:10.37,2013-09-12 17:12:00,
2013-09-12 13:17:00,87.1,75.2,30.00,North,0,5.8,5.8,68,0.00,SCT,,0.00,WeatherDisplay:10.37,2013-09-12 17:17:00,
2013-09-12 13:22:00,87.1,75.2,30.00,NW,315,5.4,5.4,68,0.00,SCT,,0.00,WeatherDisplay:10.37,2013-09-12 17:22:00,
2013-09-12 13:27:00,86.5,74.7,30.00,NE,45,6.4,6.4,68,0.00,SCT,,0.00,WeatherDisplay:10.37,2013-09-12 17:27:00,
2013-09-12 13:32:00,85.5,73.7,30.00,NE,45,5.8,5.8,68,0.00,SCT,,0.00,WeatherDisplay:10.37,2013-09-12 17:32:00,
2013-09-12 13:38:00,85.8,74.0,30.00,NE,45,4.6,4.6,68,0.00,SCT,,0.00,WeatherDisplay:10.37,2013-09-12 17:38:00,
2013-09-12 13:43:00,88.0,76.1,30.00,NE,45,4.0,4.0,68,0.00,SCT,,0.00,WeatherDisplay:10.37,2013-09-12 17:43:00,
2013-09-12 13:48:00,87.6,75.7,30.00,NE,45,6.9,6.9,68,0.00,SCT,,0.00,WeatherDisplay:10.37,2013-09-12 17:48:00,
2013-09-12 13:53:00,87.4,75.6,30.00,NNW,338,5.8,5.8,68,0.00,SCT,,0.00,WeatherDisplay:10.37,2013-09-12 17:53:00,
2013-09-12 13:58:00,89.1,77.1,30.00,West,270,4.6,4.6,68,0.00,SCT,,0.00,WeatherDisplay:10.37,2013-09-12 17:58:00,
2013-09-12 14:03:00,91.0,78.6,30.00,NW,315,5.4,5.4,67,0.00,BKN,,0.00,WeatherDisplay:10.37,2013-09-12 18:03:00,
2013-09-12 14:08:00,89.8,77.4,30.00,North,0,4.6,4.6,67,0.00,BKN,,0.00,WeatherDisplay:10.37,2013-09-12 18:08:00,
2013-09-12 14:13:00,88.0,76.1,30.00,West,270,5.8,5.8,68,0.00,BKN,,0.00,WeatherDisplay:10.37,2013-09-12 18:13:00,
2013-09-12 14:18:00,87.6,75.7,30.00,NNE,22,3.3,3.3,68,0.00,BKN,,0.00,WeatherDisplay:10.37,2013-09-12 18:18:00,
2013-09-12 14:23:00,86.7,74.9,30.00,NNE,22,3.5,3.5,68,0.00,BKN,,0.00,WeatherDisplay:10.37,2013-09-12 18:23:00,
2013-09-12 14:28:00,86.9,75.1,30.00,West,270,4.6,4.6,68,0.00,BKN,,0.00,WeatherDisplay:10.37,2013-09-12 18:28:00,
2013-09-12 14:33:00,86.2,74.4,29.98,West,270,4.6,4.6,68,0.00,-RA,,0.00,WeatherDisplay:10.37,2013-09-12 18:33:00,
2013-09-12 14:38:00,84.6,72.8,29.98,NE,45,6.0,6.0,68,0.00,-RA,,0.00,WeatherDisplay:10.37,2013-09-12 18:38:00,
2013-09-12 14:43:00,84.2,72.5,29.98,NE,45,5.4,5.4,68,0.00,-RA,,0.00,WeatherDisplay:10.37,2013-09-12 18:43:00,
2013-09-12 14:48:00,83.7,72.4,29.98,NNE,22,5.6,5.6,69,0.00,-RA,,0.00,WeatherDisplay:10.37,2013-09-12 18:48:00,
2013-09-12 14:53:00,82.2,71.0,29.98,West,270,3.5,3.5,69,0.00,-RA,,0.00,WeatherDisplay:10.37,2013-09-12 18:53:00,
2013-09-12 14:58:00,80.6,69.5,29.98,NE,45,5.4,5.4,69,0.00,-RA,,0.00,WeatherDisplay:10.37,2013-09-12 18:58:00,
2013-09-12 15:03:00,79.2,68.5,30.00,NW,315,4.6,4.6,70,0.00,-RA,,0.00,WeatherDisplay:10.37,2013-09-12 19:03:00,
2013-09-12 15:08:00,77.5,67.0,30.00,NW,315,3.5,3.5,70,0.00,-RA,,0.00,WeatherDisplay:10.37,2013-09-12 19:08:00,
2013-09-12 15:13:00,77.4,66.8,30.00,NE,45,3.5,3.5,70,0.00,-RA,,0.00,WeatherDisplay:10.37,2013-09-12 19:13:00,
2013-09-12 15:18:00,77.9,67.3,29.95,NNE,22,4.6,4.6,70,0.00,-RA,,0.00,WeatherDisplay:10.37,2013-09-12 19:18:00,
2013-09-12 15:23:00,78.8,68.2,29.95,North,0,0.0,0.0,70,0.00,-RA,,0.00,WeatherDisplay:10.37,2013-09-12 19:23:00,
2013-09-12 15:28:00,80.8,69.7,29.95,NNE,22,3.5,3.5,69,0.00,-RA,,0.00,WeatherDisplay:10.37,2013-09-12 19:28:00,
2013-09-12 15:33:00,81.1,70.0,29.95,NE,45,2.6,2.6,69,0.00,OVC,,0.00,WeatherDisplay:10.37,2013-09-12 19:33:00,
2013-09-12 15:38:00,83.1,71.9,29.95,North,0,2.3,2.3,69,0.00,OVC,,0.00,WeatherDisplay:10.37,2013-09-12 19:38:00,
2013-09-12 15:43:00,83.7,72.4,29.95,South,180,2.4,2.4,69,0.00,OVC,,0.00,WeatherDisplay:10.37,2013-09-12 19:43:00,
2013-09-12 15:48:00,85.3,73.5,29.95,West,270,2.4,2.4,68,0.00,OVC,,0.00,WeatherDisplay:10.37,2013-09-12 19:48:00,
2013-09-12 15:53:00,85.8,74.0,29.95,SW,225,2.3,2.3,68,0.00,OVC,,0.00,WeatherDisplay:10.37,2013-09-12 19:53:00,
2013-09-12 15:58:00,86.4,74.5,29.95,North,0,3.5,3.5,68,0.00,OVC,,0.00,WeatherDisplay:10.37,2013-09-12 19:58:00,
2013-09-12 16:03:00,85.3,73.5,29.95,West,270,4.6,4.6,68,0.00,OVC,,0.00,WeatherDisplay:10.37,2013-09-12 20:03:00,
2013-09-12 16:08:00,87.3,75.4,29.95,South,180,2.3,2.3,68,0.00,OVC,,0.00,WeatherDisplay:10.37,2013-09-12 20:08:00,
2013-09-12 16:13:00,87.1,75.2,29.95,West,270,1.2,1.2,68,0.00,OVC,,0.00,WeatherDisplay:10.37,2013-09-12 20:13:00,
2013-09-12 16:18:00,87.1,75.2,29.95,WSW,248,3.1,3.1,68,0.00,FEW,,0.00,WeatherDisplay:10.37,2013-09-12 20:18:00,
2013-09-12 16:23:00,85.5,73.7,29.95,West,270,2.3,2.3,68,0.00,FEW,,0.00,WeatherDisplay:10.37,2013-09-12 20:23:00,
2013-09-12 16:28:00,86.7,74.9,29.95,West,270,2.4,2.4,68,0.00,FEW,,0.00,WeatherDisplay:10.37,2013-09-12 20:28:00,
2013-09-12 16:33:00,86.4,74.5,29.95,West,270,3.5,3.5,68,0.00,FEW,,0.00,WeatherDisplay:10.37,2013-09-12 20:33:00,
2013-09-12 16:38:00,85.8,74.0,29.95,NE,45,5.8,5.8,68,0.00,FEW,,0.00,WeatherDisplay:10.37,2013-09-12 20:38:00,
2013-09-12 16:43:00,85.8,74.0,29.95,NNE,22,4.6,4.6,68,0.00,FEW,,0.00,WeatherDisplay:10.37,2013-09-12 20:43:00,
2013-09-12 16:48:00,86.4,74.5,29.95,WSW,248,6.9,6.9,68,0.00,FEW,,0.00,WeatherDisplay:10.37,2013-09-12 20:48:00,
2013-09-12 16:53:00,86.4,74.5,29.95,North,0,3.5,3.5,68,0.00,FEW,,0.00,WeatherDisplay:10.37,2013-09-12 20:53:00,
2013-09-12 16:58:00,85.5,73.7,29.95,NW,315,4.6,4.6,68,0.00,FEW,,0.00,WeatherDisplay:10.37,2013-09-12 20:58:00,
2013-09-12 17:03:00,84.2,72.5,29.95,North,0,4.3,4.3,68,0.00,FEW,,0.00,WeatherDisplay:10.37,2013-09-12 21:03:00,
2013-09-12 17:08:00,83.5,72.2,29.95,North,0,4.6,4.6,69,0.00,FEW,,0.00,WeatherDisplay:10.37,2013-09-12 21:08:00,
2013-09-12 17:13:00,83.7,72.4,29.95,North,0,3.5,3.5,69,0.00,FEW,,0.00,WeatherDisplay:10.37,2013-09-12 21:13:00,
2013-09-12 17:17:00,84.4,72.7,29.95,NW,315,3.5,3.5,68,0.00,FEW,,0.00,WeatherDisplay:10.37,2013-09-12 21:17:00,
2013-09-12 17:22:00,84.2,72.5,29.95,NE,45,5.8,5.8,68,0.00,FEW,,0.00,WeatherDisplay:10.37,2013-09-12 21:22:00,
2013-09-12 17:27:00,83.3,72.1,29.95,North,0,8.1,8.1,69,0.00,FEW,,0.00,WeatherDisplay:10.37,2013-09-12 21:27:00,
2013-09-12 17:32:00,83.5,72.2,29.92,NNE,22,4.6,4.6,69,0.00,FEW,,0.00,WeatherDisplay:10.37,2013-09-12 21:32:00,
2013-09-12 17:37:00,83.5,72.2,29.92,North,0,3.8,3.8,69,0.00,FEW,,0.00,WeatherDisplay:10.37,2013-09-12 21:37:00,
2013-09-12 17:42:00,82.9,71.7,29.92,NE,45,10.4,10.4,69,0.00,FEW,,0.00,WeatherDisplay:10.37,2013-09-12 21:42:00,
2013-09-12 17:47:00,83.1,71.9,29.92,NW,315,3.5,3.5,69,0.00,FEW,,0.00,WeatherDisplay:10.37,2013-09-12 21:47:00,
2013-09-12 17:52:00,82.8,71.5,29.92,North,0,4.6,4.6,69,0.00,FEW,,0.00,WeatherDisplay:10.37,2013-09-12 21:52:00,
2013-09-12 17:57:00,82.8,71.5,29.92,NW,315,5.9,5.9,69,0.00,FEW,,0.00,WeatherDisplay:10.37,2013-09-12 21:57:00,
2013-09-12 18:02:00,81.9,70.7,29.95,SE,135,2.3,2.3,69,0.00,FEW,,0.00,WeatherDisplay:10.37,2013-09-12 22:02:00,
2013-09-12 18:07:00,81.3,70.2,29.95,NE,45,4.6,4.6,69,0.00,FEW,,0.00,WeatherDisplay:10.37,2013-09-12 22:07:00,
2013-09-12 18:12:00,80.8,69.7,29.95,NNW,338,4.6,4.6,69,0.00,FEW,,0.00,WeatherDisplay:10.37,2013-09-12 22:12:00,
2013-09-12 18:17:00,80.4,69.7,29.95,WNW,292,3.5,3.5,70,0.00,BKN,,0.00,WeatherDisplay:10.37,2013-09-12 22:17:00,
2013-09-12 18:22:00,80.1,69.4,29.95,NE,45,2.3,2.4,70,0.00,BKN,,0.00,WeatherDisplay:10.37,2013-09-12 22:22:00,
2013-09-12 18:27:00,79.9,69.2,29.95,NNE,22,3.3,3.3,70,0.00,BKN,,0.00,WeatherDisplay:10.37,2013-09-12 22:27:00,
2013-09-12 18:32:00,79.7,69.0,29.95,NW,315,4.6,4.6,70,0.00,BKN,,0.00,WeatherDisplay:10.37,2013-09-12 22:32:00,
2013-09-12 18:37:00,79.3,68.7,29.95,NE,45,2.4,2.4,70,0.00,BKN,,0.00,WeatherDisplay:10.37,2013-09-12 22:37:00,
2013-09-12 18:42:00,79.0,68.4,29.95,NW,315,2.3,2.3,70,0.00,BKN,,0.00,WeatherDisplay:10.37,2013-09-12 22:42:00,
2013-09-12 18:47:00,78.6,68.0,29.95,NNW,338,3.5,3.5,70,0.00,BKN,,0.00,WeatherDisplay:10.37,2013-09-12 22:47:00,
2013-09-12 18:48:00,67.1,31.0,29.95,West,270,0.0,0.0,26,0.00,CLR,CLR,0.00,WeatherDisplay:10.37,2013-09-12 22:48:00,
2013-09-12 18:52:00,78.6,68.0,29.95,NNE,22,2.3,2.3,70,0.00,BKN,,0.00,WeatherDisplay:10.37,2013-09-12 22:52:00,
2013-09-12 18:57:00,78.4,67.8,29.95,West,270,2.3,2.3,70,0.00,BKN,,0.00,WeatherDisplay:10.37,2013-09-12 22:57:00,
2013-09-12 19:02:00,77.9,67.3,29.95,NE,45,2.6,0.0,70,0.00,FEW,,0.00,WeatherDisplay:10.37,2013-09-12 23:02:00,
2013-09-12 19:03:00,66.9,30.9,29.98,West,270,0.0,0.0,26,0.00,CLR,CLR,0.00,WeatherDisplay:10.37,2013-09-12 23:03:00,
2013-09-12 19:07:00,77.5,67.0,29.95,NE,45,3.5,3.5,70,0.00,FEW,,0.00,WeatherDisplay:10.37,2013-09-12 23:07:00,
2013-09-12 19:12:00,77.0,66.5,29.95,NNW,338,2.4,2.4,70,0.00,FEW,,0.00,WeatherDisplay:10.37,2013-09-12 23:12:00,
2013-09-12 19:17:00,76.8,66.3,29.95,North,0,1.2,1.2,70,0.00,FEW,,0.00,WeatherDisplay:10.37,2013-09-12 23:17:00,
2013-09-12 19:18:00,67.1,32.0,29.95,WSW,253,0.0,1.0,27,0.00,CLR,CLR,0.00,WeatherDisplay:10.37,2013-09-12 23:18:00,
2013-09-12 19:22:00,76.5,65.9,29.95,North,0,2.4,2.4,70,0.00,FEW,,0.00,WeatherDisplay:10.37,2013-09-12 23:22:00,
2013-09-12 19:27:00,76.3,65.8,29.95,North,0,2.3,2.3,70,0.00,FEW,,0.00,WeatherDisplay:10.37,2013-09-12 23:27:00,
2013-09-12 19:32:00,75.9,65.4,29.95,NE,45,2.3,2.3,70,0.00,FEW,,0.00,WeatherDisplay:10.37,2013-09-12 23:32:00,
2013-09-12 19:33:00,67.8,31.7,29.92,NNW,338,2.0,3.0,26,0.00,CLR,CLR,0.00,WeatherDisplay:10.37,2013-09-12 23:33:00,
2013-09-12 19:37:00,75.6,65.1,29.95,NW,315,1.2,0.0,70,0.00,FEW,,0.00,WeatherDisplay:10.37,2013-09-12 23:37:00,
2013-09-12 19:42:00,75.2,64.7,29.95,North,0,2.3,2.3,70,0.00,FEW,,0.00,WeatherDisplay:10.37,2013-09-12 23:42:00,
2013-09-12 19:47:00,75.0,65.0,29.95,NE,45,2.3,2.3,71,0.00,FEW,,0.00,WeatherDisplay:10.37,2013-09-12 23:47:00,
2013-09-12 19:48:00,67.8,29.7,29.92,NW,320,0.0,4.0,24,0.00,CLR,CLR,0.00,WeatherDisplay:10.37,2013-09-12 23:48:00,
2013-09-12 19:52:00,74.5,64.5,29.95,North,0,1.2,0.0,71,0.00,FEW,,0.00,WeatherDisplay:10.37,2013-09-12 23:52:00,
2013-09-12 19:57:00,73.9,63.9,29.95,NNE,22,1.4,0.0,71,0.00,FEW,,0.00,WeatherDisplay:10.37,2013-09-12 23:57:00,
2013-09-12 20:02:00,73.8,63.8,29.95,NNE,22,1.2,0.0,71,0.00,FEW,,0.00,WeatherDisplay:10.37,2013-09-13 00:02:00,
2013-09-12 20:03:00,67.5,29.4,29.95,NNW,333,1.0,2.0,24,0.00,CLR,CLR,0.00,WeatherDisplay:10.37,2013-09-13 00:03:00,
2013-09-12 20:07:00,73.4,63.4,29.95,North,0,1.2,1.2,71,0.00,FEW,,0.00,WeatherDisplay:10.37,2013-09-13 00:07:00,
2013-09-12 20:12:00,73.0,63.1,29.95,North,0,1.2,1.2,71,0.00,FEW,,0.00,WeatherDisplay:10.37,2013-09-13 00:12:00,
2013-09-12 20:17:00,72.7,62.7,29.95,NE,45,1.2,1.2,71,0.00,CLR,,0.00,WeatherDisplay:10.37,2013-09-13 00:17:00,
2013-09-12 20:18:00,67.1,29.1,29.92,NNW,342,1.0,3.0,24,0.00,CLR,CLR,0.00,WeatherDisplay:10.37,2013-09-13 00:18:00,
2013-09-12 20:22:00,72.3,62.4,29.95,NNE,22,1.2,0.0,71,0.00,CLR,,0.00,WeatherDisplay:10.37,2013-09-13 00:22:00,
2013-09-12 20:27:00,72.1,62.2,29.95,North,0,0.0,0.0,71,0.00,CLR,,0.00,WeatherDisplay:10.37,2013-09-13 00:27:00,
2013-09-12 20:32:00,72.0,62.0,29.95,North,0,1.2,0.0,71,0.00,CLR,,0.00,WeatherDisplay:10.37,2013-09-13 00:32:00,
2013-09-12 20:33:00,67.1,28.0,29.95,NNW,339,2.0,5.0,23,0.00,CLR,CLR,0.00,WeatherDisplay:10.37,2013-09-13 00:33:00,
2013-09-12 20:37:00,72.0,62.0,29.95,NNE,22,1.2,0.0,71,0.00,CLR,,0.00,WeatherDisplay:10.37,2013-09-13 00:37:00,
2013-09-12 20:42:00,71.8,61.9,29.95,North,0,0.0,0.0,71,0.00,CLR,,0.00,WeatherDisplay:10.37,2013-09-13 00:42:00,
2013-09-12 20:47:00,71.4,61.9,29.95,North,0,0.0,0.0,72,0.00,CLR,,0.00,WeatherDisplay:10.37,2013-09-13 00:47:00,
2013-09-12 20:48:00,66.9,27.9,29.95,NNW,329,2.0,5.0,23,0.00,CLR,CLR,0.00,WeatherDisplay:10.37,2013-09-13 00:48:00,
2013-09-12 20:52:00,71.1,61.6,29.95,North,0,0.0,0.0,72,0.00,CLR,,0.00,WeatherDisplay:10.37,2013-09-13 00:52:00,
2013-09-12 20:57:00,70.9,61.4,29.95,North,0,0.0,0.0,72,0.00,CLR,,0.00,WeatherDisplay:10.37,2013-09-13 00:57:00,
2013-09-12 21:02:00,70.5,61.1,29.95,North,0,0.0,0.0,72,0.00,CLR,,0.00,WeatherDisplay:10.37,2013-09-13 01:02:00,
2013-09-12 21:03:00,66.4,27.4,29.92,North,359,1.0,4.0,23,0.00,CLR,CLR,0.00,WeatherDisplay:10.37,2013-09-13 01:03:00,
2013-09-12 21:07:00,70.3,60.9,29.95,North,0,0.0,0.0,72,0.00,CLR,,0.00,WeatherDisplay:10.37,2013-09-13 01:07:00,
2013-09-12 21:12:00,70.2,60.7,29.95,North,0,0.0,0.0,72,0.00,CLR,,0.00,WeatherDisplay:10.37,2013-09-13 01:12:00,
2013-09-12 21:17:00,69.7,60.2,29.95,North,0,0.0,0.0,72,0.00,CLR,CLR,0.00,WeatherDisplay:10.37,2013-09-13 01:17:00,
2013-09-12 21:18:00,65.8,27.0,29.92,North,351,1.0,3.0,23,0.00,CLR,CLR,0.00,WeatherDisplay:10.37,2013-09-13 01:18:00,
2013-09-12 21:22:00,69.4,60.0,29.95,North,0,0.0,0.0,72,0.00,CLR,,0.00,WeatherDisplay:10.37,2013-09-13 01:22:00,
2013-09-12 21:27:00,69.3,59.8,29.95,North,0,0.0,0.0,72,0.00,CLR,,0.00,WeatherDisplay:10.37,2013-09-13 01:27:00,
2013-09-12 21:33:00,68.7,60.5,29.95,North,0,0.0,0.0,75,0.00,CLR,,0.00,WeatherDisplay:10.37,2013-09-13 01:33:00,
2013-09-12 21:38:00,68.4,60.1,29.95,North,0,0.0,0.0,75,0.00,CLR,,0.00,WeatherDisplay:10.37,2013-09-13 01:38:00,
2013-09-12 21:43:00,68.4,60.1,29.95,North,0,0.0,0.0,75,0.00,CLR,,0.00,WeatherDisplay:10.37,2013-09-13 01:43:00,
2013-09-12 21:48:00,68.2,60.7,29.98,North,0,0.0,0.0,77,0.00,CLR,,0.00,WeatherDisplay:10.37,2013-09-13 01:48:00,
2013-09-12 21:53:00,68.2,60.7,29.98,NE,45,0.0,0.0,77,0.00,CLR,,0.00,WeatherDisplay:10.37,2013-09-13 01:53:00,
2013-09-12 21:58:00,68.4,60.9,29.98,NW,315,1.2,0.0,77,0.00,CLR,,0.00,WeatherDisplay:10.37,2013-09-13 01:58:00,
2013-09-12 22:03:00,68.2,60.7,29.95,NW,315,1.2,0.0,77,0.00,CLR,,0.00,WeatherDisplay:10.37,2013-09-13 02:03:00,
2013-09-12 22:08:00,68.2,60.7,29.95,NW,315,0.0,0.0,77,0.00,CLR,,0.00,WeatherDisplay:10.37,2013-09-13 02:08:00,
2013-09-12 22:13:00,68.2,60.7,29.95,NW,315,0.0,0.0,77,0.00,CLR,,0.00,WeatherDisplay:10.37,2013-09-13 02:13:00,
2013-09-12 22:18:00,68.4,60.9,29.95,NW,315,1.2,0.0,77,0.00,CLR,,0.00,WeatherDisplay:10.37,2013-09-13 02:18:00,
2013-09-12 22:23:00,68.2,61.1,29.95,NW,315,0.0,0.0,78,0.00,CLR,,0.00,WeatherDisplay:10.37,2013-09-13 02:23:00,
2013-09-12 22:28:00,68.2,61.1,29.95,NE,45,0.0,0.0,78,0.00,CLR,,0.00,WeatherDisplay:10.37,2013-09-13 02:28:00,
2013-09-12 22:33:00,68.2,61.1,29.95,NW,315,0.0,0.0,78,0.00,CLR,,0.00,WeatherDisplay:10.37,2013-09-13 02:33:00,
2013-09-12 22:38:00,68.2,61.1,29.95,NW,315,0.0,0.0,78,0.00,CLR,,0.00,WeatherDisplay:10.37,2013-09-13 02:38:00,
2013-09-12 22:43:00,68.2,61.1,29.95,West,270,1.2,0.0,78,0.00,CLR,,0.00,WeatherDisplay:10.37,2013-09-13 02:43:00,
2013-09-12 22:48:00,68.0,60.9,29.95,West,270,0.0,0.0,78,0.00,CLR,,0.00,WeatherDisplay:10.37,2013-09-13 02:48:00,
2013-09-12 22:53:00,67.8,60.7,29.95,West,270,0.0,0.0,78,0.00,CLR,,0.00,WeatherDisplay:10.37,2013-09-13 02:53:00,
2013-09-12 22:58:00,67.8,61.1,29.95,West,270,0.0,0.0,79,0.00,CLR,,0.00,WeatherDisplay:10.37,2013-09-13 02:58:00,
2013-09-12 23:03:00,67.6,60.9,29.95,West,270,0.0,0.0,79,0.00,CLR,,0.00,WeatherDisplay:10.37,2013-09-13 03:03:00,
2013-09-12 23:08:00,67.6,60.9,29.95,West,270,0.0,0.0,79,0.00,CLR,,0.00,WeatherDisplay:10.37,2013-09-13 03:08:00,
2013-09-12 23:13:00,67.5,60.7,29.95,West,270,0.0,0.0,79,0.00,CLR,,0.00,WeatherDisplay:10.37,2013-09-13 03:13:00,
2013-09-12 23:18:00,67.5,61.1,29.95,West,270,1.2,0.0,80,0.00,CLR,,0.00,WeatherDisplay:10.37,2013-09-13 03:18:00,
2013-09-12 23:23:00,67.5,61.1,29.95,West,270,0.0,0.0,80,0.00,CLR,,0.00,WeatherDisplay:10.37,2013-09-13 03:23:00,
2013-09-12 23:28:00,67.3,60.5,29.95,West,270,0.0,0.0,79,0.00,CLR,,0.00,WeatherDisplay:10.37,2013-09-13 03:28:00,
2013-09-12 23:33:00,67.3,60.9,29.98,West,270,0.0,0.0,80,0.00,CLR,,0.00,WeatherDisplay:10.37,2013-09-13 03:33:00,
2013-09-12 23:38:00,67.3,60.9,29.98,West,270,0.0,0.0,80,0.00,CLR,,0.00,WeatherDisplay:10.37,2013-09-13 03:38:00,
2013-09-12 23:48:00,61.5,24.3,29.95,North,356,2.0,4.0,24,0.00,CLR,CLR,0.00,WeatherDisplay:10.37,2013-09-13 03:48:00,